Simultaneous Nadir Overpasses (SNOs) Predictions

Prediction of SNOs between FY3D and AQUA Satellite Orbit:

Table of predicted SNOs for the next 14.0 days since TLE Epoch: 3/20/2021
Index Date (FY3D) Time (FY3D) Lat,Lon (FY3D) SZA (FY3D ) Date (AQUA) Time (AQUA) Lat,Lon (AQUA) SZA (AQUA ) Distance(km) Time Diff (sec)
1 03/21/2021 14:57:31 46.09, -29.72 46.83 03/21/2021 14:58:05 46.20, -29.23 47.07 39.68 34
2 03/21/2021 16:07:18 -64.50, -19.18 71.39 03/21/2021 16:06:05 -64.62, -20.04 71.13 42.99 73
3 03/24/2021 07:13:51 46.09, 86.22 45.85 03/24/2021 07:14:34 46.18, 86.66 46.07 35.32 43
4 03/24/2021 08:29:04 -46.05, 85.77 54.98 03/24/2021 08:27:52 -46.08, 85.49 54.74 22.29 72
5 03/26/2021 23:30:10 46.09,-157.85 44.87 03/26/2021 23:31:02 46.17,-157.46 45.08 31.02 52
6 03/27/2021 00:45:23 -46.06,-158.29 56.02 03/27/2021 00:44:20 -46.09,-158.63 55.78 26.51 63
7 03/29/2021 15:46:30 46.09, -41.91 43.91 03/29/2021 15:47:31 46.16, -41.58 44.11 26.75 61
8 03/29/2021 17:01:43 -46.06, -42.36 57.06 03/29/2021 17:00:49 -46.10, -42.75 56.82 30.78 54
9 04/01/2021 08:02:50 46.10, 74.02 42.95 04/01/2021 08:04:00 46.16, 74.30 43.15 22.53 70



Historial Predications of SNOs between FY3D and AQUA
